STARLINK-32429, 61682

Orbit data source: Space-Track

STARLINK-32429, 61682 is a payload satellite owned by SpaceX/Seattle (US) in LEO that was launched on Sat, 26 Oct 2024 UTC via an FALCON 9 launch vehicle from the Air Force Eastern Test Range (AFETR). Payload-class satellites include a variety of spacecraft equipped with specific instruments for various scientific and technological missions. These include communications satellites like Starlink; space stations such as the ISS; scientific satellites like the Hubble; Earth observation satellites from companies like Planet Labs, Umbra, and HawkEye 360; GPS; miniature CubeSats for education and research; and military/defense satellites.

Loading next visibility...
Identifier
61682, 2024-193X
Orbit
LEO
Country
Flag of USUS
Related business
Manufacturer
SpaceX/Seattle
Mission
Operational Commercial Communications
Bus & Motor
STARLINK V2M, Unknown motor
Mass
730 kg wet, ~700 kg dry
Launch date (UTC)
2024-10-26 (2 years ago)
Launch vehicle
FALCON 9
Launch site
Air Force Eastern Test Range (AFETR)
Object type
Payload
Rocket body
Debris
Shape & HBR
Box + 2 Pan, 17.7 m
Radar Cross Section
33.884 m², Large (>1 m²)

Expand to show TLE details & history
Last TLE update: 10 hours ago

TLE from 10 hours ago
0 STARLINK-32429
1 61682U 24193X   26125.47143899  .00000002  00000-0  12179-4 0  9999
2 61682  53.1600 187.0056 0001033  88.2623 271.8496 15.30194680 85224
Epoch: 2026-05-05T11:18Z
TLE epoch observation values (Epoch: 2026-05-05T11:18:52.328Z)
Latitude
-0.00004°
Longitude
153.94173°
Altitude
476.108 km
Speed
7.629 km/s
True Right ascension
12h 28m 01s
True Declination
0° 00' 00"
Sunlit
Object was in full shadow at epoch
Visualization orbit readout
Latitude
Unknown
Longitude
Unknown
Altitude
Unknown
Speed
Unknown
Apparent Right ascension
Unknown
Apparent Declination
Unknown
Sunlit
N/A
Visualization observer readout
Local Sidereal Time
05:24:54
Azimuth
Unknown
Elevation
Unknown
Doppler factor
Unknown
Orbital elements
Apogee altitude
476.195 km
Perigee altitude
474.779 km
Semi-major axis
6,853.624 km
Eccentricity
0.0001
Inclination
53.16°
RAAN
187.0056°
Arg. of periapsis
88.2623°
True anomaly
271.83777°
Mean anomaly
271.8496°
Eccentric anomaly
271.84368°
Mean motion
3.82528 °/min
Orbital period
94.11 mins
BSTAR
0.000012179
Loading maneuver chart data...
Computing Atmospheric mass density...
Loading historical data...
Loading historical data...
Loading historical data...
Loading historical data...
Loading historical data...
Loading historical data...
Loading historical data...

Documentation

Showing up to 5 results
|